Location: Clatteringshaws Loch
(55.0508°N, 4.2860°W)
Time: 10:35:25
(UTC+00:00)

SR - Visible Passes

Search period start: 27 November 2014 00:00
Search period end: 07 December 2014 00:00
Orbit: 578 x 886 km, 66.7° (Epoch: 26 November)

Date Brightness Start Highest point End Pass type
(mag) Time Alt. Az. Time Alt. Az. Time Alt. Az.
27 Nov ? 05:35:14 10° S 05:40:38 38° ESE 05:45:49 10° NE visible
27 Nov ? 07:16:51 10° WSW 07:22:42 64° NW 07:28:14 10° NE visible
28 Nov ? 04:47:53 10° SSE 04:52:29 24° ESE 04:56:56 10° ENE visible
28 Nov ? 06:28:13 10° SW 06:34:09 89° SE 06:39:46 10° NE visible
29 Nov ? 04:01:26 10° SE 04:04:28 15° ESE 04:07:28 10° ENE visible
29 Nov ? 05:39:56 10° SSW 05:45:43 60° SE 05:51:15 10° NE visible
29 Nov ? 07:22:33 10° WSW 07:28:10 46° NW 07:33:28 10° NE visible
30 Nov ? 04:52:02 10° S 04:57:25 38° ESE 05:02:36 10° NE visible
30 Nov ? 06:33:39 10° WSW 06:39:29 64° NW 06:45:00 10° NE visible
01 Dec ? 04:06:25 17° SSE 04:09:15 24° ESE 04:13:42 10° ENE visible
01 Dec ? 05:46:00 15° SW 05:50:55 89° SE 05:56:31 10° NE visible
01 Dec ? 07:28:27 10° W 07:33:43 35° NNW 07:38:42 10° NE visible
02 Dec ? 03:20:33 14° ESE 03:21:13 15° ESE 03:24:13 10° ENE visible
02 Dec ? 05:00:07 35° S 05:02:29 60° SE 05:07:58 10° NE visible
02 Dec ? 06:39:41 12° WSW 06:44:55 46° NW 06:50:11 10° NE visible
03 Dec ? 04:13:55 38° SE 04:14:09 38° ESE 04:19:19 10° NE visible
03 Dec ? 05:53:27 31° WSW 05:56:14 64° NW 06:01:42 10° NE visible
03 Dec ? 07:34:26 10° WNW 07:39:21 29° NNW 07:43:59 10° NE visible
04 Dec ? 03:27:28 22° E 03:27:28 22° E 03:30:24 10° ENE visible
04 Dec ? 05:07:00 72° SW 05:07:39 89° SE 05:13:13 10° NE visible
04 Dec ? 06:46:32 16° W 06:50:27 35° NNW 06:55:23 10° NE visible
05 Dec ? 02:40:52 10° ENE 02:40:52 10° ENE 02:40:55 10° ENE visible
05 Dec ? 04:20:24 49° ENE 04:20:24 49° ENE 04:24:39 10° NE visible
05 Dec ? 05:59:55 35° WNW 06:01:38 45° NW 06:06:51 10° NE visible
06 Dec ? 03:33:39 23° ENE 03:33:39 23° ENE 03:35:59 10° NE visible
06 Dec ? 05:13:10 62° NNW 05:13:10 62° NNW 05:18:22 10° NE visible
06 Dec ? 06:52:41 17° WNW 06:56:03 28° NNW 07:00:38 10° NE visible
